Wind_Speed
4 4 4 4 5 4 4 4 4 4 5 4 4 3 3 3 3 2 2 2 2 2 2 3 3 3 2 2 2 3 3 3 3 3 3 4 3 3 4 4 3 3 3 3 3 3 3 3 3
4 5 5 5 4 4 4 4 5 4 5 4 4 3 3 3 3 3 2 3 3 3 3 3 3 3 3 3 3 3 4 4 4 4 4 4 4 4 5 5 4 4 3 3 4 3 3 3 4
5 5 5 5 5 5 5 5 5 5 5 5 4 4 4 3 3 3 3 3 4 4 4 4 4 4 4 4 4 4 4 5 5 5 5 5 5 5 5 5 5 4 4 4 4 4 4 4 5
6 6 6 5 5 5 5 5 5 5 5 5 5 5 4 4 4 4 3 4 4 5 5 5 5 5 5 6 5 5 5 5 6 6 6 6 7 6 6 6 5 5 5 5 5 5 5 5 5
6 7 6 6 6 6 5 6 5 5 5 5 5 5 5 4 4 5 5 5 5 6 5 5 5 6 6 6 6 6 6 6 6 6 6 7 6 6 7 7 6 6 5 5 5 6 5 5 5
6 6 6 6 6 7 6 6 6 6 6 5 5 6 6 5 5 5 6 6 6 6 6 6 5 6 6 7 7 7 7 6 6 7 7 6 6 6 7 7 6 6 6 6 6 6 6 6 6
6 5 5 5 6 6 6 6 6 6 6 6 6 6 6 6 6 6 6 6 6 6 6 6 6 6 7 6 6 7 6 6 7 7 7 6 7 7 7 7 7 6 7 7 7 7 7 7 7
6 5 5 5 5 6 6 6 6 6 7 7 7 6 6 6 7 7 7 7 7 7 6 6 6 6 6 6 6 7 7 7 7 6 7 7 7 7 8 7 7 7 7 7 7 7 7 8 8
6 6 6 6 6 6 6 7 7 6 6 7 7 7 7 7 8 8 8 7 7 7 7 6 6 6 6 6 6 6 7 7 7 6 7 7 7 7 7 7 7 7 7 7 7 7 8 8 9
7 6 6 6 6 7 6 6 6 6 6 7 7 8 7 8 8 7 7 7 7 6 6 6 6 7 7 6 6 5 6 6 6 7 7 6 6 6 6 7 7 7 7 7 7 8 8 8 8
7 7 6 6 6 6 6 6 6 6 6 7 7 7 8 8 8 8 8 7 7 7 7 7 6 7 7 6 5 5 5 6 6 7 6 6 6 6 6 7 7 8 8 8 8 8 8 8 8
7 7 6 6 6 5 5 6 6 7 7 7 7 6 6 7 7 7 7 7 7 6 7 7 7 7 7 7 6 6 6 6 6 7 6 6 7 7 7 8 8 8 8 8 9 9 9 9 9
6 6 6 6 6 6 6 6 6 5 6 5 5 6 7 7 6 5 5 6 6 6 7 7 7 7 7 7 7 7 7 7 7 7 7 7 8 9 9 9 8 8 8 9 10 10 10 10 10
6 6 6 6 6 6 6 6 6 6 6 5 5 5 5 5 5 5 5 5 5 6 7 7 7 7 8 8 8 8 7 7 7 7 8 8 9 9 10 9 8 9 9 10 10 10 10 10 10
5 5 6 6 6 6 6 6 6 6 5 5 4 4 4 4 4 4 5 4 5 6 6 6 7 7 7 7 7 7 7 7 7 8 8 8 9 9 10 9 9 9 10 10 10 10 10 10 10
5 5 5 5 6 6 6 5 5 5 5 5 5 4 4 4 4 4 4 4 5 5 5 6 7 6 7 7 7 7 7 7 7 7 8 8 8 9 9 9 10 10 10 10 10 10 10 10 11
4 5 5 5 5 5 5 5 5 6 5 5 5 4 4 4 4 4 4 4 4 4 5 5 6 6 6 6 6 7 7 7 7 7 7 7 7 8 8 9 9 10 11 11 11 10 10 11 11
3 4 5 5 5 4 4 5 6 6 5 5 5 4 5 4 3 4 4 4 4 4 4 4 5 5 6 5 6 6 7 7 7 7 7 7 7 7 8 8 9 9 11 11 11 10 10 10 10
4 4 5 5 5 5 4 4 5 5 5 5 4 4 5 4 3 3 3 3 3 4 4 4 4 5 5 6 6 6 7 7 7 7 7 7 8 8 9 9 10 10 11 11 11 10 10 10 11
4 4 4 5 6 5 5 4 5 5 5 5 5 5 5 4 4 4 4 4 3 4 5 5 5 5 5 5 5 6 6 7 7 6 7 7 8 9 9 9 9 9 9 9 10 10 11 11 12
4 4 4 5 6 6 5 5 5 5 5 6 6 5 5 5 4 5 5 4 4 5 5 5 5 6 6 6 6 6 6 7 7 8 9 9 9 9 9 9 9 9 9 9 9 10 11 11 11
5 4 5 5 6 5 6 5 5 6 6 6 6 6 6 5 5 5 6 6 6 6 6 6 6 7 7 7 7 7 7 7 8 8 9 9 9 10 10 10 9 10 10 10 10 10 10 11 11
5 5 5 6 6 6 6 6 5 6 6 6 6 6 6 6 6 6 6 6 6 7 7 7 7 7 7 7 7 7 8 8 8 9 9 9 10 10 10 10 10 10 11 11 10 11 11 11 11
5 6 6 6 7 7 7 7 6 6 6 7 7 7 7 7 7 7 7 7 7 7 7 8 8 8 8 8 8 9 9 9 9 9 9 9 10 10 10 10 11 11 12 12 11 12 12 12 12
6 6 6 7 7 7 7 7 7 7 7 7 8 8 7 7 7 7 7 8 7 7 8 8 8 9 9 9 9 9 10 10 9 9 10 10 10 10 10 11 11 12 12 12 12 12 13 13 14
6 7 8 8 8 8 8 8 8 8 8 8 8 8 8 8 8 8 9 8 8 8 8 9 9 10 10 10 10 10 10 10 10 10 10 10 10 10 11 11 11 12 13 13 14 14 14 14 15
8 8 9 10 10 10 9 8 8 8 8 8 8 9 9 9 10 10 10 9 9 8 9 9 10 11 11 11 11 11 11 11 11 11 11 11 11 11 12 12 13 13 14 14 15 15 15 16 16
10 10 10 11 11 11 10 9 8 8 8 8 9 9 9 10 10 10 10 10 9 9 9 9 10 10 11 11 11 11 12 12 12 12 12 12 13 13 13 13 14 15 15 15 15 16 16 16 17
11 11 11 12 12 12 11 10 10 10 10 9 9 10 10 11 11 11 11 10 10 10 10 10 10 10 10 10 11 11 12 13 13 13 13 14 14 14 14 15 15 15 16 16 16 17 17 17 18
12 12 12 12 12 13 13 11 11 11 11 11 11 11 11 12 12 11 11 11 11 11 11 11 11 11 11 11 12 12 13 14 14 15 15 15 15 15 15 15 16 17 17 17 18 18 18 17 17
Wind_Direction
250 259 268 262 254 250 247 243 240 245 240 248 251 241 226 221 235 256 270 259 235 245 244 245 243 256 276 296 307 326 320 313 309 307 310 314 313 323 329 327 314 310 309 301 294 281 274 271 269
248 254 263 267 273 273 260 254 240 235 249 255 251 236 224 232 244 255 263 245 239 249 256 258 259 266 272 281 291 305 305 306 304 302 301 303 303 309 314 314 303 303 302 297 290 282 279 276 274
259 259 265 273 278 278 270 262 248 246 252 246 243 237 237 238 250 258 271 267 261 260 264 275 280 275 275 277 284 294 299 299 300 294 292 290 297 303 304 300 296 296 299 299 289 280 275 274 275
264 264 265 270 278 274 268 265 259 248 247 240 232 241 243 249 261 262 262 270 268 265 267 275 274 278 281 282 284 286 288 287 287 285 284 286 287 291 294 286 285 288 289 292 292 287 275 276 272
265 266 266 267 268 272 271 263 252 252 247 241 243 249 249 251 253 253 258 263 261 263 276 284 272 271 272 274 279 285 288 285 280 277 283 289 285 283 287 281 278 281 282 286 293 286 279 278 276
264 264 263 268 271 268 261 259 256 250 249 246 248 249 251 253 254 257 261 264 270 279 281 284 281 275 270 272 277 282 280 279 273 275 282 287 283 282 280 276 278 281 280 280 282 280 276 275 276
261 262 268 272 271 265 260 260 259 263 254 250 251 253 252 250 256 263 267 270 275 283 278 277 281 279 273 273 277 281 284 278 274 279 279 283 280 281 277 277 283 281 279 279 276 275 273 273 275
263 265 271 274 270 266 264 266 265 266 258 257 251 246 250 253 257 260 266 267 275 279 277 281 279 281 276 271 272 280 284 286 283 278 282 284 278 278 278 277 283 283 282 285 283 279 279 279 278
261 265 267 268 266 268 268 272 266 260 263 257 247 247 254 254 255 257 262 267 270 271 269 273 271 279 277 272 270 278 283 283 284 285 282 286 277 281 283 277 282 284 286 288 286 282 284 286 283
258 263 266 261 263 265 266 268 264 265 267 257 250 249 252 252 252 254 263 269 269 267 268 270 272 273 276 276 272 280 286 284 283 284 281 277 279 284 286 282 283 284 285 287 287 285 285 285 286
260 261 259 257 263 269 264 265 265 269 266 259 258 253 252 250 252 261 267 267 270 270 268 269 272 274 279 284 284 285 288 291 293 285 279 278 273 279 280 276 281 282 281 283 284 282 283 282 281
259 259 254 254 262 269 272 271 273 271 267 260 257 255 254 253 265 268 269 266 268 269 274 273 273 274 277 282 285 288 290 289 291 285 282 278 272 272 276 278 281 282 280 280 280 283 282 279 279
250 254 254 253 255 261 268 271 271 269 266 265 259 251 251 255 263 266 271 269 265 265 272 277 275 276 277 282 283 288 289 286 284 283 281 277 274 272 276 278 280 280 281 282 283 284 279 274 275
242 246 249 253 259 258 267 268 271 274 270 262 254 246 249 257 264 264 265 266 266 269 273 273 273 276 276 278 280 282 288 288 286 280 278 277 275 275 278 276 277 280 281 282 286 284 278 275 275
239 250 255 257 262 261 266 270 268 272 270 256 250 251 252 254 257 261 257 267 272 276 277 270 271 272 271 274 278 278 283 286 284 281 276 276 272 274 274 272 274 277 278 278 281 278 274 277 277
250 257 259 256 260 257 263 268 264 265 261 248 244 245 250 251 249 264 265 267 275 279 280 275 270 270 271 272 275 275 280 283 285 280 278 278 275 273 273 272 272 275 279 279 280 277 271 273 276
263 258 255 265 270 264 265 266 265 260 253 246 243 240 241 244 248 263 271 279 281 286 283 281 272 268 271 272 274 275 277 280 283 281 280 282 282 277 277 275 272 278 279 278 279 277 274 274 275
269 261 266 273 274 272 270 269 260 254 246 248 248 244 239 246 257 264 267 279 282 282 287 292 287 281 280 280 284 280 280 281 281 280 280 281 284 282 285 281 276 279 278 276 277 275 276 274 273
270 271 266 268 273 276 276 269 259 258 252 253 258 257 253 257 268 267 268 277 278 279 287 296 296 290 286 286 287 284 281 282 281 283 285 286 284 283 284 284 280 280 280 278 277 278 277 274 273
267 263 258 260 273 274 270 269 258 252 251 257 262 264 261 261 276 271 266 267 270 278 288 292 295 297 296 295 295 286 282 284 286 287 288 286 284 283 281 285 284 282 285 287 286 282 280 279 275
268 264 269 281 281 281 273 263 254 253 260 265 266 266 257 256 265 266 261 261 268 279 287 284 288 292 293 291 292 292 286 283 283 283 288 287 284 284 284 283 283 287 290 289 288 288 283 278 277
277 273 282 288 277 276 277 271 262 264 270 274 277 273 266 262 264 268 266 265 264 271 277 279 278 283 288 290 290 292 290 285 285 287 289 290 289 289 288 285 285 287 288 287 284 286 285 279 277
281 280 281 287 285 279 278 281 275 270 270 273 277 277 275 271 269 272 274 275 271 271 277 278 279 281 287 290 291 291 293 290 287 290 293 293 291 291 291 290 290 289 289 289 285 288 286 282 279
281 281 280 282 284 284 286 289 289 287 278 279 278 278 279 279 276 276 280 283 281 278 281 281 282 284 286 286 287 287 290 291 290 291 295 297 296 294 292 292 291 290 290 290 287 287 288 286 282
279 276 279 280 282 286 291 294 294 295 286 279 276 274 275 277 279 281 282 284 280 280 282 281 282 283 284 282 284 284 286 290 293 295 296 297 296 296 295 293 293 291 291 291 288 287 287 285 284
282 282 284 287 285 286 288 296 292 296 294 283 278 274 276 281 282 281 280 282 282 282 282 283 283 283 281 280 283 286 287 288 291 295 296 296 294 294 294 296 296 295 293 292 291 289 287 286 286
284 288 288 288 287 285 287 291 289 290 291 285 280 278 277 281 284 285 283 283 281 283 283 284 281 281 279 280 283 287 287 287 289 291 293 294 295 295 296 296 297 296 295 293 292 293 289 286 286
282 285 285 286 286 285 284 286 286 285 284 286 284 280 278 281 282 280 283 282 281 282 285 286 284 282 279 278 281 286 288 288 289 290 291 294 295 296 297 298 296 295 294 294 293 292 290 287 287
278 281 280 282 284 284 284 284 283 281 282 284 283 281 280 281 283 280 281 281 281 281 283 286 287 285 279 278 281 283 286 289 289 289 291 292 292 293 295 296 296 297 298 295 294 292 291 290 289
278 280 281 281 281 282 284 283 279 278 280 281 282 282 283 282 282 282 283 283 281 279 282 285 286 287 281 277 279 281 284 288 290 290 288 288 290 291 291 293 295 297 298 297 296 293 290 288 287
Height
5871 5872 5872 5874 5874 5874 5873 5874 5874 5874 5875 5875 5875 5876 5876 5876 5877 5880 5878 5876 5877 5877 5877 5877 5877 5877 5877 5877 5877 5877 5876 5876 5876 5876 5876 5876 5876 5876 5876 5876 5876 5875 5875 5876 5876 5876 5876 5877 5877
5871 5872 5873 5873 5873 5873 5874 5873 5873 5874 5874 5874 5874 5875 5875 5875 5876 5877 5876 5876 5876 5877 5877 5877 5877 5877 5876 5876 5876 5876 5876 5876 5876 5876 5875 5875 5875 5875 5875 5875 5875 5875 5875 5875 5875 5875 5876 5876 5876
5870 5871 5873 5873 5872 5873 5873 5872 5873 5873 5873 5873 5874 5874 5875 5875 5875 5876 5876 5876 5876 5876 5876 5876 5876 5876 5876 5876 5876 5875 5875 5875 5875 5875 5875 5875 5875 5874 5874 5874 5874 5874 5874 5874 5874 5875 5875 5875 5875
5871 5871 5872 5872 5871 5872 5872 5872 5872 5873 5872 5873 5873 5874 5874 5875 5875 5875 5875 5875 5876 5876 5875 5875 5875 5875 5875 5875 5875 5874 5874 5874 5874 5874 5874 5874 5874 5873 5873 5873 5873 5873 5873 5874 5874 5873 5874 5874 5874
5870 5870 5871 5871 5871 5871 5871 5871 5871 5871 5872 5872 5872 5873 5873 5874 5874 5874 5875 5875 5875 5875 5874 5874 5874 5874 5874 5874 5874 5873 5873 5873 5873 5873 5873 5873 5872 5872 5872 5872 5872 5872 5872 5872 5872 5872 5873 5873 5873
5869 5869 5870 5870 5870 5870 5870 5870 5870 5871 5871 5871 5871 5872 5872 5872 5873 5873 5873 5873 5873 5873 5873 5873 5872 5872 5872 5872 5872 5872 5872 5872 5872 5872 5872 5871 5871 5871 5871 5871 5871 5871 5871 5871 5871 5872 5872 5872 5872
5869 5869 5868 5869 5869 5869 5869 5869 5869 5869 5869 5870 5870 5870 5870 5871 5871 5872 5872 5872 5872 5872 5872 5871 5871 5871 5871 5871 5871 5871 5870 5870 5870 5870 5870 5870 5870 5870 5870 5870 5870 5870 5870 5870 5870 5870 5870 5870 5870
5867 5868 5867 5868 5868 5868 5869 5868 5868 5868 5868 5869 5869 5869 5869 5870 5870 5870 5870 5870 5870 5870 5870 5870 5870 5870 5869 5869 5870 5869 5869 5869 5868 5869 5869 5869 5868 5869 5869 5869 5869 5869 5869 5869 5869 5869 5869 5869 5869
5866 5868 5867 5867 5867 5867 5867 5867 5867 5867 5867 5868 5868 5868 5869 5869 5869 5869 5869 5869 5869 5869 5869 5869 5869 5868 5868 5868 5868 5868 5868 5868 5868 5867 5867 5867 5867 5867 5867 5867 5867 5867 5867 5867 5867 5867 5867 5867 5867
5865 5866 5866 5866 5866 5866 5866 5866 5866 5866 5866 5866 5866 5867 5867 5867 5867 5867 5867 5867 5867 5867 5867 5867 5867 5867 5867 5867 5867 5867 5867 5866 5866 5866 5866 5866 5866 5866 5866 5866 5866 5866 5866 5866 5866 5866 5866 5866 5865
5863 5864 5864 5864 5865 5865 5865 5865 5865 5865 5865 5865 5865 5865 5865 5866 5866 5866 5866 5866 5866 5866 5866 5866 5866 5866 5865 5865 5865 5865 5865 5865 5865 5864 5864 5864 5864 5865 5865 5865 5865 5865 5865 5865 5865 5865 5864 5864 5864
5861 5862 5863 5863 5863 5864 5864 5864 5864 5864 5865 5864 5864 5864 5864 5864 5864 5864 5864 5864 5864 5864 5864 5864 5864 5864 5864 5864 5864 5864 5864 5864 5863 5863 5863 5863 5863 5863 5864 5864 5864 5863 5863 5863 5863 5863 5863 5862 5862
5860 5860 5861 5862 5862 5863 5863 5863 5863 5863 5863 5863 5863 5863 5863 5863 5863 5863 5863 5863 5863 5863 5863 5863 5863 5863 5863 5863 5862 5862 5862 5862 5862 5861 5861 5862 5862 5862 5862 5862 5862 5862 5861 5861 5861 5861 5861 5860 5860
5859 5859 5860 5861 5861 5861 5862 5862 5862 5862 5862 5862 5862 5862 5862 5862 5862 5862 5862 5861 5861 5861 5861 5861 5861 5861 5861 5861 5861 5861 5861 5860 5860 5860 5860 5860 5860 5860 5860 5860 5860 5860 5860 5859 5859 5859 5858 5858 5858
5858 5859 5859 5859 5860 5860 5861 5861 5861 5861 5861 5861 5861 5861 5861 5861 5861 5861 5861 5861 5860 5860 5860 5860 5860 5860 5860 5860 5860 5860 5859 5859 5859 5858 5858 5858 5858 5858 5858 5858 5858 5858 5857 5857 5857 5857 5856 5856 5856
5857 5858 5859 5859 5859 5859 5861 5860 5860 5860 5860 5860 5860 5860 5860 5860 5860 5860 5859 5859 5859 5859 5859 5859 5859 5858 5858 5858 5858 5858 5858 5857 5857 5857 5856 5856 5856 5856 5856 5855 5855 5855 5855 5855 5854 5854 5854 5854 5853
5856 5857 5858 5858 5858 5858 5859 5859 5859 5858 5859 5859 5859 5859 5859 5859 5859 5859 5859 5858 5858 5858 5858 5858 5857 5857 5857 5856 5856 5856 5856 5856 5855 5855 5855 5854 5854 5854 5854 5853 5853 5853 5853 5852 5852 5852 5852 5851 5851
5856 5857 5857 5857 5857 5857 5857 5857 5857 5857 5857 5858 5858 5858 5858 5858 5858 5858 5857 5857 5857 5857 5857 5856 5856 5856 5855 5855 5855 5855 5855 5854 5854 5853 5853 5853 5852 5852 5852 5851 5851 5851 5850 5850 5849 5849 5849 5849 5849
5856 5856 5856 5856 5856 5856 5856 5856 5856 5856 5856 5857 5857 5857 5857 5857 5857 5856 5856 5856 5856 5856 5856 5855 5855 5855 5854 5854 5853 5853 5853 5853 5852 5852 5851 5851 5851 5850 5850 5849 5849 5848 5848 5847 5846 5846 5846 5846 5846
5855 5855 5855 5855 5855 5855 5855 5855 5855 5855 5855 5856 5856 5855 5855 5855 5855 5855 5855 5855 5855 5855 5855 5854 5854 5854 5853 5853 5852 5852 5851 5851 5851 5850 5850 5850 5849 5848 5848 5847 5846 5846 5845 5844 5844 5844 5843 5843 5843
5854 5854 5854 5855 5854 5854 5855 5855 5855 5854 5854 5854 5854 5854 5854 5854 5854 5854 5854 5854 5853 5853 5853 5853 5853 5852 5852 5851 5851 5851 5850 5850 5849 5849 5848 5848 5847 5846 5846 5845 5844 5844 5843 5842 5842 5841 5841 5840 5840
5853 5854 5854 5854 5853 5853 5854 5854 5854 5853 5853 5853 5853 5853 5853 5853 5852 5852 5852 5852 5852 5852 5852 5851 5851 5851 5850 5850 5849 5849 5848 5848 5847 5847 5846 5845 5845 5844 5843 5843 5842 5841 5841 5840 5839 5839 5838 5838 5837
5853 5853 5853 5853 5852 5853 5853 5853 5854 5852 5852 5852 5852 5852 5852 5851 5851 5851 5851 5850 5850 5850 5850 5849 5849 5849 5848 5848 5847 5847 5847 5846 5845 5845 5844 5843 5842 5842 5841 5840 5840 5839 5838 5838 5837 5836 5835 5835 5835
5851 5852 5852 5851 5852 5852 5852 5852 5852 5851 5851 5851 5851 5851 5850 5850 5850 5849 5849 5849 5848 5848 5848 5847 5847 5847 5846 5846 5845 5845 5845 5844 5843 5842 5842 5841 5840 5839 5839 5838 5837 5836 5836 5835 5834 5833 5832 5832 5831
5850 5851 5851 5850 5850 5851 5851 5850 5851 5850 5849 5849 5849 5849 5848 5848 5848 5848 5847 5847 5846 5846 5846 5845 5845 5844 5844 5844 5843 5843 5842 5842 5841 5840 5839 5839 5838 5837 5836 5835 5834 5833 5833 5832 5831 5830 5829 5828 5827
5848 5849 5850 5849 5849 5849 5849 5848 5849 5848 5847 5847 5847 5847 5847 5846 5846 5845 5845 5845 5844 5844 5843 5843 5842 5842 5841 5841 5841 5840 5839 5839 5838 5837 5837 5836 5835 5834 5833 5832 5831 5830 5829 5828 5827 5826 5825 5824 5823
5847 5847 5847 5847 5847 5847 5847 5847 5847 5846 5845 5845 5845 5845 5844 5844 5844 5843 5843 5842 5842 5841 5841 5840 5840 5839 5839 5838 5838 5837 5837 5836 5835 5834 5834 5833 5832 5831 5830 5829 5828 5827 5826 5825 5823 5822 5821 5820 5819
5845 5845 5845 5845 5844 5844 5845 5845 5845 5844 5843 5843 5843 5842 5842 5841 5841 5840 5840 5840 5839 5839 5838 5838 5837 5837 5836 5836 5835 5834 5834 5833 5832 5832 5831 5830 5829 5828 5827 5826 5824 5823 5822 5821 5819 5818 5817 5815 5814
5843 5843 5842 5842 5841 5841 5841 5844 5842 5841 5841 5840 5840 5839 5839 5839 5838 5837 5837 5837 5836 5836 5835 5835 5834 5834 5833 5833 5832 5831 5831 5830 5829 5828 5827 5826 5825 5824 5823 5822 5821 5819 5818 5816 5815 5814 5812 5811 5810
5840 5840 5839 5839 5839 5838 5838 5842 5838 5838 5837 5837 5837 5836 5836 5836 5835 5834 5834 5834 5833 5833 5833 5832 5831 5831 5830 5829 5829 5828 5827 5826 5825 5825 5824 5823 5822 5821 5819 5818 5817 5815 5814 5812 5810 5809 5807 5806 5805